Kabul, Afghanistan

11:43 PM +0430 on June 23, 2017 (GMT +0430)
Kabul

Weather History for OAKB - February, 2014

Change the Weather History Date:

Saturday, February 8, 2014

  Actual Average Record
Temperature  
Mean Temperature 24 °F -  
Max Temperature 37 °F 45 °F - ()
Min Temperature 12 °F 25 °F - ()
Degree Days  
Heating Degree Days 40    
Moisture  
Dew Point 6 °F    
Average Humidity 47    
Maximum Humidity 63    
Minimum Humidity 26    
Precipitation  
Precipitation 0.00 in 0.08 in - ()
Sea Level Pressure  
Sea Level Pressure 30.06 in    
Wind  
Wind Speed 7 mph ()    
Max Wind Speed 12 mph    
Max Gust Speed -    
Visibility 4.3 miles    
Events      
T = Trace of Precipitation, MM = Missing Value Source: Averaged Metar Reports

Daily Weather History Graph

Daily Weather History Graph

Search for Another Location

Airport or City:

Trip Planner

Search our weather history database for the weather conditions in past years. The results will help you decide how hot, cold, wet, or windy it might be!

Date:

Astronomy

Feb. 08, 2014 Rise Set
Actual Time 6:45 AM +0430 5:29 PM +0430
Civil Twilight 6:19 AM +0430 5:55 PM +0430
Nautical Twilight 5:49 AM +0430 6:25 PM +0430
Astronomical Twilight 5:20 AM +0430 6:54 PM +0430
Moon 12:07 PM +0430 (2/8) 1:30 AM +0430 (2/8)
Length of Visible Light 11h 35m
Length of Day
10h 43m
Waxing Gibbous, 65% of the Moon is Illuminated
Feb 8
Waxing Gibbous
Feb 15
Full
Feb 22
Last Quarter
Mar 1
New
Mar 8
First Quarter

Hourly Weather History & Observations

Time (+0430) Temp. Windchill Dew Point Humidity Pressure Visibility Wind Dir Wind Speed Gust Speed Precip Events Conditions
12:20 AM 23.0 °F 13.9 °F 10.4 °F 59% 30.04 in - NW 8.1 mph - N/A   Clear
1:20 AM 19.4 °F 8.6 °F 5.0 °F 54% 30.01 in - NW 9.2 mph - N/A   Clear
2:20 AM 15.8 °F 4.2 °F 1.4 °F 53% 30.04 in - WNW 9.2 mph - N/A   Clear
3:20 AM 32.0 °F 27.5 °F 3.2 °F 30% 30.01 in - SW 4.6 mph - N/A   Clear
4:20 AM 12.2 °F -0.2 °F 1.4 °F 62% 30.01 in - WNW 9.2 mph - N/A   Clear
5:20 AM 14.0 °F 2.9 °F 1.4 °F 57% 30.04 in - WNW 8.1 mph - N/A   Clear
6:20 AM 17.6 °F 12.3 °F 1.4 °F 49% 30.04 in - NW 3.5 mph - N/A   Clear
7:20 AM 15.8 °F 4.2 °F 3.2 °F 58% 30.06 in 5.0 mi NW 9.2 mph - N/A   Unknown
8:20 AM 17.6 °F 5.7 °F 3.2 °F 53% 30.06 in 5.0 mi WNW 10.4 mph - N/A   Unknown
9:20 AM 17.6 °F 5.7 °F 3.2 °F 53% 30.06 in 5.0 mi WNW 10.4 mph - N/A   Unknown
10:20 AM 30.2 °F 24.3 °F 5.0 °F 34% 30.12 in - Variable 5.8 mph - N/A   Clear
11:20 AM 30.2 °F 20.8 °F 3.2 °F 32% 30.09 in - South 11.5 mph - N/A   Clear
12:20 PM 30.2 °F 22.6 °F 5.0 °F 34% 30.09 in - South 8.1 mph - N/A   Clear
1:20 PM 35.6 °F 32.8 °F 5.0 °F 28% 30.06 in - South 3.5 mph - N/A   Clear
2:20 PM 37.4 °F 33.8 °F 5.0 °F 26% 30.06 in - West 4.6 mph - N/A   Clear
4:20 PM 35.6 °F 32.8 °F 5.0 °F 28% 30.04 in 5.0 mi West 3.5 mph - N/A   Unknown
5:20 PM 30.2 °F 25.4 °F 10.4 °F 44% 30.04 in 4.3 mi East 4.6 mph - N/A   Unknown
6:20 PM 23.0 °F 17.0 °F 8.6 °F 54% 30.06 in 5.0 mi SSW 4.6 mph - N/A   Unknown
7:20 PM 24.8 °F 19.1 °F 10.4 °F 54% 30.06 in 3.7 mi NW 4.6 mph - N/A   Unknown
8:20 PM 23.0 °F 12.4 °F 8.6 °F 54% 30.06 in 3.7 mi NW 10.4 mph - N/A   Unknown
9:20 PM 23.0 °F 13.1 °F 10.4 °F 59% 30.09 in 3.7 mi NW 9.2 mph - N/A   Unknown
10:20 PM 19.4 °F 9.5 °F 8.6 °F 63% 30.09 in 3.7 mi NW 8.1 mph - N/A   Unknown
11:20 PM 23.0 °F 13.9 °F 8.6 °F 54% 30.09 in 3.7 mi NNW 8.1 mph - N/A   Unknown